Date_and_time,latitude,longitude,wind_speed,RelWindDirFrom,WindDirFrom,air_pressure,air_temperature,relative_humidity,Temp,platform_speed_wrt_ground,air_pressure_at_mean_sea_level,platform_orientation
2019-04-07 23:50,50.630445,-96.9807666666667,4.8,5.4,11,979.56,2.8,104,1.83,0.0,1006.82,48.3
2019-04-08 00:00,50.6304433333333,-96.9807766666667,4.1,5.1,15,979.52,3.5,104,1.82,0.0,1006.74,270.0
2019-04-08 00:10,50.6304416666667,-96.980775,4.5,5.8,21,979.56,3.0,104,1.83,0.0,1006.79,270.0
2019-04-08 00:20,50.6304433333333,-96.980775,4.5,5.5,7,979.62,2.2,104,1.84,0.0,1006.89,270.0
2019-04-08 00:30,50.63044,-96.9807716666667,4.3,5.6,4,979.60,2.2,104,1.84,0.0,1006.86,270.0
2019-04-08 00:40,50.63044,-96.9807733333333,3.3,4.3,11,979.71,2.3,104,1.85,0.0,1006.97,270.0
2019-04-08 00:50,50.6304316666667,-96.9807866666667,3.3,5.3,17,979.78,2.3,104,1.87,0.0,1007.06,270.0
2019-04-08 01:00,50.63044,-96.9807966666667,2.9,3.4,13,979.86,2.3,104,1.87,0.0,1007.14,270.0
2019-04-08 01:10,50.63043,-96.9807716666667,4.0,5.4,22,979.65,2.3,104,1.87,0.0,1006.96,270.0
2019-04-08 01:20,50.6304283333333,-96.9807683333333,4.6,5.6,28,979.46,2.1,104,1.87,0.0,1006.85,270.0
2019-04-08 01:30,50.6304333333333,-96.98077,3.2,5.2,12,979.54,1.5,104,1.88,0.0,1006.98,270.0
2019-04-08 01:40,50.6304383333333,-96.98079,3.0,4.4,335,979.95,1.6,104,1.88,0.0,1007.38,270.0
2019-04-08 01:50,50.6304416666667,-96.9807766666667,1.4,2.5,303,980.15,2.1,104,1.88,0.0,1007.52,270.0
2019-04-08 02:00,50.630445,-96.98078,0.8,1.7,336,980.16,2.4,105,1.88,0.0,1007.53,246.4
2019-04-08 02:10,50.630445,-96.9807766666667,0.3,1.9,354,980.23,2.4,105,1.88,0.0,1007.64,246.4
2019-04-08 02:20,50.6304433333333,-96.980775,0.3,0.9,291,980.31,2.4,105,1.88,0.0,1007.73,246.4
2019-04-08 02:30,50.6304466666667,-96.980775,1.0,2.1,274,980.32,2.4,105,1.88,0.0,1007.73,246.4
2019-04-08 02:40,50.6304466666667,-96.980775,1.2,2.0,274,980.34,2.6,105,1.90,0.0,1007.73,246.4
2019-04-08 02:50,50.6304466666667,-96.980775,1.4,2.6,263,980.40,2.4,105,1.89,0.0,1007.81,246.4
2019-04-08 03:00,50.630445,-96.9807733333333,2.3,3.3,317,980.25,2.8,105,1.86,0.0,1007.63,0.0
2019-04-08 03:10,50.6304466666667,-96.9807733333333,2.8,4.7,308,980.33,3.0,105,1.84,0.0,1007.72,0.0
2019-04-08 03:20,50.6304466666667,-96.9807733333333,2.9,5.0,295,980.44,3.3,104,1.86,0.0,1007.85,0.0
2019-04-08 03:30,50.6304666666667,-96.98078,2.2,2.8,275,980.53,3.4,104,1.87,0.0,1007.93,0.0
2019-04-08 03:40,50.6304333333333,-96.980775,2.7,4.2,274,980.57,3.5,104,1.88,0.0,1007.94,0.0
2019-04-08 03:50,50.6304416666667,-96.9807683333333,2.4,3.9,292,980.43,3.5,104,1.89,0.0,1007.79,0.0
2019-04-08 04:00,50.6304433333333,-96.9807666666667,3.1,5.4,285,980.34,3.5,103,1.89,0.0,1007.69,90.0
2019-04-08 04:10,50.6304433333333,-96.9807683333333,3.0,4.7,268,980.40,3.4,103,1.90,0.0,1007.76,90.0
2019-04-08 04:20,50.6304433333333,-96.98077,3.5,4.8,270,980.47,3.4,103,1.92,0.0,1007.83,90.0
2019-04-08 04:30,50.6304383333333,-96.9807616666667,4.0,5.9,283,980.30,3.4,103,1.92,0.0,1007.65,90.0
2019-04-08 04:40,50.6304383333333,-96.9807683333333,3.6,5.0,273,980.38,3.4,103,1.91,0.0,1007.73,90.0
2019-04-08 04:50,50.630435,-96.9807783333333,3.5,5.0,282,980.44,3.3,103,1.91,0.0,1007.79,90.0
2019-04-08 05:00,50.630445,-96.9807766666667,3.4,5.2,308,980.25,3.3,103,1.91,0.0,1007.58,90.0
2019-04-08 05:10,50.6304483333333,-96.9807666666667,2.3,3.6,274,980.20,3.1,103,1.91,0.0,1007.52,90.0
2019-04-08 05:20,50.6304483333333,-96.9807683333333,3.1,4.0,245,980.26,3.1,103,1.91,0.0,1007.58,90.0
2019-04-08 05:30,50.63045,-96.9807733333333,2.8,4.1,256,980.38,3.0,103,1.91,0.0,1007.71,90.0
2019-04-08 05:40,50.630445,-96.9807733333333,3.4,5.3,301,980.37,3.1,103,1.91,0.0,1007.68,90.0
2019-04-08 05:50,50.6304466666667,-96.98077,3.4,4.7,302,980.19,3.1,103,1.90,0.0,1007.50,90.0
2019-04-08 06:00,50.6304483333333,-96.98077,2.4,4.0,321,980.21,3.0,103,1.89,0.0,1007.53,12.6
2019-04-08 06:10,50.6304316666667,-96.9807866666667,1.0,2.1,322,980.21,3.0,103,1.89,0.0,1007.53,12.6
2019-04-08 06:20,50.63045,-96.98078,1.1,2.6,350,980.16,3.1,103,1.90,0.0,1007.48,12.6
2019-04-08 06:30,50.63045,-96.9807766666667,4.5,6.3,22,980.08,2.5,103,1.90,0.0,1007.43,12.6
2019-04-08 06:40,50.63045,-96.9807733333333,4.8,5.8,15,979.97,1.7,104,1.90,0.0,1007.35,12.6
2019-04-08 06:50,50.6304516666667,-96.9807733333333,4.4,5.3,356,979.92,1.5,104,1.91,0.0,1007.32,12.6
2019-04-08 07:00,50.6304516666667,-96.9807733333333,4.4,7.2,328,980.04,1.8,104,1.91,0.0,1007.43,360.0
2019-04-08 07:10,50.63045,-96.9807716666667,4.6,7.1,296,980.19,2.1,104,1.91,0.0,1007.58,360.0
2019-04-08 07:20,50.6304283333333,-96.9808,3.9,7.2,291,980.30,2.2,104,1.91,0.0,1007.68,360.0
2019-04-08 07:30,50.630435,-96.9807616666667,3.9,5.6,279,980.45,2.2,104,1.91,0.0,1007.83,360.0
2019-04-08 07:40,50.6304533333333,-96.9807733333333,3.9,6.4,282,980.35,2.2,104,1.91,0.0,1007.74,360.0
2019-04-08 07:50,50.6304433333333,-96.9807783333333,2.9,4.3,284,980.22,2.1,104,1.89,0.0,1007.61,360.0
2019-04-08 08:00,50.6304383333333,-96.9807733333333,3.1,4.4,314,979.96,2.0,104,1.89,0.0,1007.35,90.0
2019-04-08 08:10,50.6304366666667,-96.98077,3.1,4.4,328,979.78,1.9,104,1.88,0.0,1007.17,90.0
2019-04-08 08:20,50.6304366666667,-96.9807683333333,2.4,3.2,327,979.78,1.8,104,1.89,0.0,1007.20,90.0
2019-04-08 08:30,50.6304366666667,-96.98077,3.3,4.5,320,979.70,1.8,104,1.90,0.0,1007.16,90.0
2019-04-08 08:40,50.6304383333333,-96.98077,2.9,4.2,324,979.56,1.7,104,1.90,0.0,1007.03,90.0
2019-04-08 08:50,50.63044,-96.9807716666667,3.2,5.8,317,979.52,1.6,104,1.90,0.0,1006.97,90.0
2019-04-08 09:00,50.630465,-96.9807816666667,4.7,6.9,305,979.60,1.6,104,1.90,0.0,1007.04,332.6
2019-04-08 09:10,50.63046,-96.98077,4.5,6.5,295,979.72,1.5,104,1.90,0.0,1007.17,332.6
2019-04-08 09:20,50.630455,-96.9807666666667,3.7,5.7,276,980.05,1.5,104,1.90,0.0,1007.50,332.6
2019-04-08 09:30,50.6304516666667,-96.9807666666667,5.8,8.9,278,980.26,1.3,104,1.88,0.0,1007.73,332.6
2019-04-08 09:40,50.6304516666667,-96.9807683333333,6.4,8.5,289,980.43,1.2,104,1.87,0.0,1007.91,332.6
2019-04-08 09:50,50.6304516666667,-96.9807683333333,6.0,9.7,298,980.64,1.2,104,1.87,0.0,1008.14,332.6
2019-04-08 10:00,50.6304516666667,-96.98077,6.7,11.4,291,980.56,0.9,104,1.88,0.0,1008.07,90.0
2019-04-08 10:10,50.6304483333333,-96.9807683333333,6.4,10.0,288,980.64,0.8,104,1.87,0.0,1008.16,90.0
2019-04-08 10:20,50.63045,-96.9807683333333,6.1,9.7,292,980.54,0.7,104,1.86,0.0,1008.07,90.0
2019-04-08 10:30,50.63044,-96.9807433333333,6.8,12.9,300,980.61,0.6,104,1.85,0.0,1008.15,90.0
2019-04-08 10:40,50.6304466666667,-96.980755,7.1,12.3,305,980.72,0.5,104,1.86,0.0,1008.27,90.0
2019-04-08 10:50,50.63045,-96.9807616666667,7.0,10.7,310,980.63,0.4,104,1.85,0.0,1008.19,90.0
2019-04-08 11:00,50.63045,-96.9807616666667,5.0,8.2,319,980.67,0.3,104,1.85,0.0,1008.23,36.6
2019-04-08 11:10,50.63045,-96.9807616666667,6.6,10.1,330,980.44,0.3,104,1.87,0.0,1008.00,36.6
2019-04-08 11:20,50.6304533333333,-96.98076,5.3,10.5,336,980.49,0.3,104,1.87,0.0,1008.06,36.6
2019-04-08 11:30,50.6304516666667,-96.9807683333333,5.7,8.5,332,980.53,0.3,104,1.85,0.0,1008.11,36.6
2019-04-08 11:40,50.6304466666667,-96.9807733333333,5.2,7.9,345,980.53,0.3,104,1.84,0.0,1008.11,36.6
2019-04-08 11:50,50.630445,-96.9807716666667,4.0,6.1,346,980.53,0.3,104,1.85,0.0,1008.12,36.6
2019-04-08 12:00,50.63045,-96.9807666666667,3.3,5.0,317,980.81,0.3,104,1.85,0.0,1008.42,138.8
2019-04-08 12:10,50.63045,-96.9807666666667,3.3,4.7,313,980.80,0.3,104,1.84,0.0,1008.41,138.8
2019-04-08 12:20,50.63045,-96.9807666666667,1.3,3.9,19,980.51,0.5,104,1.84,0.0,1008.11,138.8
2019-04-08 12:30,50.63045,-96.980765,2.1,3.5,57,980.33,0.6,104,1.85,0.0,1007.93,138.8
2019-04-08 12:40,50.63045,-96.980765,2.0,3.5,42,980.39,0.5,104,1.84,0.0,1008.00,138.8
2019-04-08 12:50,50.63045,-96.980765,5.0,8.1,299,981.05,0.3,104,1.84,0.0,1008.69,138.8
2019-04-08 13:00,50.6304483333333,-96.980765,5.4,7.8,297,981.25,0.4,104,1.84,0.0,1008.89,360.0
2019-04-08 13:10,50.63045,-96.980765,5.6,8.1,317,981.19,0.4,104,1.84,0.0,1008.83,360.0
2019-04-08 13:20,50.63045,-96.980765,6.2,10.4,324,981.17,0.5,104,1.83,0.0,1008.80,360.0
2019-04-08 13:30,50.63045,-96.9807666666667,6.6,9.8,331,981.02,0.5,103,1.82,0.0,1008.65,360.0
2019-04-08 13:40,50.6304483333333,-96.9807666666667,6.1,10.4,326,981.18,0.6,103,1.83,0.0,1008.81,360.0
2019-04-08 13:50,50.630455,-96.9807833333333,7.0,10.1,327,981.13,0.5,103,1.83,0.0,1008.76,360.0
2019-04-08 14:00,50.6304466666667,-96.9807783333333,7.1,10.0,334,981.11,0.5,103,1.81,0.0,1008.74,252.3
2019-04-08 14:10,50.6304483333333,-96.98078,6.1,8.9,346,981.14,0.5,103,1.82,0.0,1008.76,252.3
2019-04-08 14:20,50.63045,-96.9807816666667,6.1,8.7,347,981.11,0.6,103,1.83,0.0,1008.73,252.3
2019-04-08 14:30,50.63045,-96.9807816666667,7.4,10.3,346,981.04,0.6,103,1.79,0.0,1008.66,252.3
2019-04-08 14:40,50.63045,-96.98078,7.1,9.9,350,980.94,0.6,103,1.77,0.0,1008.56,252.3
2019-04-08 14:50,50.63045,-96.98078,6.6,9.7,337,980.99,0.7,103,1.77,0.0,1008.60,252.3
2019-04-08 15:00,50.63045,-96.9807783333333,7.2,10.0,339,981.09,0.9,102,1.79,0.0,1008.70,270.0
2019-04-08 15:10,50.63045,-96.9807783333333,7.2,9.7,329,981.16,1.0,102,1.80,0.0,1008.75,270.0
2019-04-08 15:20,50.63045,-96.9807783333333,7.1,10.7,331,981.28,1.2,102,1.80,0.0,1008.87,270.0
2019-04-08 15:30,50.63045,-96.9807783333333,6.0,8.8,330,981.44,1.4,101,1.81,0.0,1009.02,270.0
2019-04-08 15:40,50.63045,-96.9807716666667,4.8,7.4,312,981.53,1.7,101,1.81,0.0,1009.10,270.0
2019-04-08 15:50,50.63045,-96.980775,7.4,10.7,321,981.43,2.0,100,1.82,0.0,1008.98,270.0
2019-04-08 16:00,50.63045,-96.9807733333333,6.1,9.7,314,981.49,2.3,100,1.83,0.0,1009.03,347.4
2019-04-08 16:10,50.63045,-96.9807733333333,4.0,6.2,301,981.68,2.5,99,1.84,0.0,1009.21,347.4
2019-04-08 16:20,50.6304283333333,-96.9807516666667,5.8,10.5,309,981.73,2.6,99,1.84,0.0,1009.26,347.4
2019-04-08 16:30,50.6304333333333,-96.980765,8.5,11.6,306,981.81,2.6,99,1.83,0.0,1009.33,347.4
2019-04-08 16:40,50.630445,-96.9807566666667,7.1,10.7,307,981.95,2.8,99,1.83,0.0,1009.47,347.4
2019-04-08 16:50,50.6304433333333,-96.9807666666667,6.6,9.7,303,981.98,3.0,99,1.84,0.0,1009.48,347.4
2019-04-08 17:00,50.630445,-96.9807666666667,7.5,12.8,298,981.99,3.1,99,1.84,0.0,1009.48,113.6
2019-04-08 17:10,50.630445,-96.9807683333333,9.9,14.7,301,982.02,3.0,99,1.84,0.0,1009.50,113.6
2019-04-08 17:20,50.6304433333333,-96.9807683333333,9.3,13.9,307,982.09,2.9,99,1.84,0.0,1009.57,113.6
2019-04-08 17:30,50.630445,-96.9807683333333,8.5,14.8,322,982.17,2.8,99,1.86,0.0,1009.64,113.6
2019-04-08 17:40,50.630445,-96.9807683333333,9.0,14.1,307,982.20,2.7,99,1.86,0.0,1009.66,113.6
2019-04-08 17:50,50.6304466666667,-96.98077,7.3,12.0,311,982.36,2.7,99,1.87,0.0,1009.82,113.6
2019-04-08 18:00,50.6304533333333,-96.9807916666667,8.4,13.1,295,982.40,2.8,97,1.87,0.0,1009.83,270.0
2019-04-08 18:10,50.6304516666667,-96.9807883333333,9.0,14.1,306,982.34,2.9,93,1.87,0.0,1009.77,270.0
2019-04-08 18:20,50.6304516666667,-96.9807833333333,8.8,13.6,313,982.44,3.0,91,1.87,0.0,1009.87,270.0
2019-04-08 18:30,50.6304433333333,-96.9807833333333,7.0,13.7,298,982.59,3.0,92,1.87,0.0,1010.01,270.0
2019-04-08 18:40,50.6304566666667,-96.9807833333333,8.4,13.4,305,982.57,3.0,91,1.87,0.0,1009.98,270.0
2019-04-08 18:50,50.63045,-96.9807766666667,9.1,14.6,309,982.54,3.0,90,1.87,0.0,1009.95,270.0
2019-04-08 19:00,50.6304483333333,-96.9807716666667,10.8,16.6,300,982.51,2.8,86,1.88,0.0,1009.92,360.0
2019-04-08 19:10,50.6304483333333,-96.98077,9.4,14.4,319,982.68,2.7,90,1.88,0.0,1010.11,360.0
2019-04-08 19:20,50.630445,-96.9807716666667,11.2,16.0,336,982.75,2.5,92,1.89,0.0,1010.20,360.0
2019-04-08 19:30,50.630445,-96.9807716666667,12.2,18.5,332,982.87,2.1,94,1.88,0.0,1010.35,360.0
2019-04-08 19:40,50.630445,-96.9807716666667,10.2,15.5,316,983.15,2.0,93,1.88,0.0,1010.64,360.0
2019-04-08 19:50,50.630445,-96.98077,11.4,16.6,328,983.30,2.0,93,1.89,0.0,1010.79,360.0
2019-04-08 20:00,50.630445,-96.9807716666667,11.8,16.6,335,983.44,1.8,93,1.90,0.0,1010.94,270.0
2019-04-08 20:10,50.6304483333333,-96.9807683333333,12.9,16.9,334,983.48,1.5,94,1.91,0.0,1010.99,270.0
2019-04-08 20:20,50.6304433333333,-96.9807683333333,13.7,18.2,333,983.61,1.0,95,1.91,0.0,1011.15,270.0
2019-04-08 20:30,50.6304433333333,-96.9807716666667,12.4,17.2,327,983.77,0.8,94,1.91,0.0,1011.32,270.0
2019-04-08 20:40,50.6304433333333,-96.98077,11.9,17.7,321,983.81,1.0,92,1.92,0.0,1011.36,270.0
2019-04-08 20:50,50.6304416666667,-96.98077,11.0,16.7,324,983.93,0.9,91,1.92,0.0,1011.49,270.0
2019-04-08 21:00,50.6304516666667,-96.9807583333333,10.9,17.9,316,984.08,1.0,89,1.93,0.0,1011.64,90.0
2019-04-08 21:10,50.6304466666667,-96.9807733333333,11.5,18.0,323,984.12,0.9,88,1.94,0.0,1011.70,90.0
2019-04-08 21:20,50.630445,-96.9807633333333,10.9,17.0,325,984.17,0.9,88,1.94,0.0,1011.78,90.0
2019-04-08 21:30,50.6304416666667,-96.98076,10.8,17.6,315,984.17,0.7,87,1.94,0.0,1011.79,90.0
2019-04-08 21:40,50.6304416666667,-96.9807616666667,10.6,18.5,314,984.31,1.0,84,1.94,0.0,1011.92,90.0
2019-04-08 21:50,50.6304416666667,-96.9807633333333,11.4,17.7,306,984.42,1.0,81,1.94,0.0,1012.05,90.0
2019-04-08 22:00,50.6304433333333,-96.9807633333333,11.1,17.6,309,984.59,0.5,81,1.95,0.0,1012.26,167.4
2019-04-08 22:10,50.6304433333333,-96.9807633333333,10.2,16.3,312,984.76,0.4,80,1.95,0.0,1012.47,167.4
2019-04-08 22:20,50.630445,-96.9807616666667,10.7,16.3,320,984.88,0.2,80,1.94,0.0,1012.60,167.4
2019-04-08 22:30,50.6304466666667,-96.9807616666667,10.2,14.9,323,985.01,0.1,80,1.94,0.0,1012.74,167.4
2019-04-08 22:40,50.6304483333333,-96.9807616666667,8.4,14.1,316,985.14,0.3,79,1.95,0.0,1012.86,167.4
2019-04-08 22:50,50.63045,-96.9807633333333,10.4,15.6,326,985.23,0.1,78,1.95,0.0,1012.96,167.4
2019-04-08 23:00,50.63045,-96.9807633333333,10.0,14.5,318,985.39,-0.1,78,1.95,0.0,1013.14,360.0
2019-04-08 23:10,50.63045,-96.9807633333333,12.6,18.4,329,985.48,-0.1,77,1.95,0.0,1013.24,360.0
2019-04-08 23:20,50.630445,-96.9807816666667,12.6,17.3,335,985.62,-0.5,79,1.93,0.0,1013.41,360.0
2019-04-08 23:30,50.6304433333333,-96.98077,11.5,15.8,327,985.67,-0.7,79,1.91,0.0,1013.46,360.0
